Location: Bordes
(43.2333°N, 0.2833°W)
Time: 05:54:12
(UTC+00:00)

Daily predictions for brighter satellites

Satellite Brightness Start Highest point End
(mag) Time Altitude Azimuth Time Altitude Azimuth Time Altitude Azimuth
ATLAS CENTAUR R/B 3.9 00:07:30 20° WSW 00:11:30 66° NNW 00:25:19 10° NE
Cosmos 1825 4.0 00:13:02 21° E 00:13:02 21° E 00:15:47 10° NE
Cosmos 1408 3.5 00:19:18 42° ENE 00:19:18 42° ENE 00:22:23 10° NNE
Cosmos 1812 Rocket 3.7 00:15:03 10° NNW 00:19:20 58° W 00:19:24 58° W
SL-16 R/B 2.6 00:19:57 37° WSW 00:21:58 58° WNW 00:27:35 10° NNE
Cosmos 405 Rocket 3.9 00:23:36 32° E 00:23:36 32° E 00:26:34 10° NNE
USA 229 DEB 3.5 00:22:35 47° SSW 00:24:31 74° ESE 00:31:17 10° NE
USA 229 3.5 00:22:42 47° SSW 00:24:38 74° ESE 00:31:23 10° NE
Cosmos 2058 4.5 00:24:22 24° E 00:24:40 24° E 00:28:00 10° NE
Cosmos 2237 Rocket 4.2 00:21:04 10° W 00:25:24 22° NW 00:29:44 10° N
X-37B 3.2 00:28:47 15° ENE 00:28:47 15° ENE 00:29:24 10° ENE
Cosmos 2221 4.4 00:23:29 10° NNE 00:26:52 22° ENE 00:28:23 18° ESE
NOSS 3-1 (C) 3.5 00:31:10 36° WSW 00:33:21 63° NW 00:39:33 10° NNE
Cosmos 1898 Rocket 4.1 00:28:54 10° N 00:34:02 51° ENE 00:36:11 31° ESE
Cosmos 2369 Rocket 2.5 00:30:44 10° NNW 00:36:26 65° ENE 00:38:58 33° SE
Cosmos 1356 4.0 00:37:29 54° NNE 00:37:29 54° NNE 00:40:14 10° NNE
SJ 16-02 1.9 00:36:06 10° NNW 00:40:01 43° W 00:40:01 43° W
GP-B 3.9 00:37:18 10° NNW 00:41:25 38° W 00:41:51 37° W
NOSS 2-3 (E) 4.1 00:42:31 44° W 00:43:27 53° NW 00:48:07 10° NNE
NOSS 3-1 (A) 3.1 00:42:42 50° SW 00:44:14 88° WNW 00:50:27 10° NE
Cosmos 1825 Rocket 3.7 00:45:41 58° WSW 00:46:08 61° W 00:50:33 10° N
ATLAS 5 CENTAUR R/B 3.4 00:48:04 17° ESE 00:48:04 17° ESE 00:50:20 10° ENE
USA 308 4.3 00:53:27 27° ESE 00:53:27 27° ESE 00:56:16 10° ENE
CZ-4 R/B 4.0 00:48:05 10° NNE 00:52:43 60° ESE 00:53:33 51° SE
Cosmos 2142 Rocket 4.5 00:48:31 10° NNW 00:54:37 68° W 00:56:33 44° SSW
Helios 1A 3.1 01:00:06 53° SE 01:00:54 67° ENE 01:05:04 10° N
Cosmos 2297 4.5 00:56:01 10° NW 01:00:59 33° WSW 01:01:28 32° WSW
Cosmos 468 Rocket 4.0 01:00:57 49° SW 01:02:17 71° WNW 01:07:31 10° NNE
Cosmos 1606 4.2 00:59:38 10° NNE 01:03:02 29° ENE 01:04:13 24° ESE
SL-16 R/B 3.5 00:59:52 14° SE 01:04:47 44° ENE 01:10:35 10° N
USA 305 3.4 01:10:32 43° SE 01:10:32 43° SE 01:14:24 10° ENE
USA 290 4.2 01:11:15 21° E 01:11:15 21° E 01:13:31 10° NE
Cosmos 1953 Rocket 3.9 01:10:29 47° WSW 01:11:04 50° WNW 01:15:22 10° N
Lacrosse 4 Rocket 3.5 01:11:40 10° N 01:15:06 25° NE 01:18:28 10° ESE
Cosmos 2098 Rocket 3.5 01:15:08 42° S 01:16:57 74° E 01:21:32 10° NNE
Cosmos 1763 Rocket 3.8 01:15:44 39° WSW 01:17:16 53° WNW 01:22:18 10° NNE
BREEZE-M R/B 3.0 01:18:11 42° SE 01:18:11 42° SE 01:21:58 10° ENE
USA 267 3.7 01:19:19 36° SSW 01:20:33 39° SW 01:26:38 10° WNW
Cosmos 1892 4.2 01:21:02 24° W 01:21:19 24° WNW 01:24:32 10° NNW
Cosmos 1437 Rocket 2.5 01:18:14 10° NNW 01:22:07 75° W 01:22:18 73° SW
Resurs 1-4 Rocket 2.5 01:17:04 10° NNE 01:22:18 55° E 01:24:23 34° SSE
SL-4 R/B 4.3 01:21:39 10° NW 01:24:38 22° N 01:27:29 10° NE
Cosmos 1943 Rocket 3.4 01:24:57 10° NW 01:29:16 24° WSW 01:29:31 24° WSW
NOSS 2-2 (D) 3.6 01:30:21 43° ESE 01:30:21 43° ESE 01:33:42 10° NE
Cosmos 1842 Rocket 3.4 01:27:54 10° N 01:32:15 77° W 01:33:14 52° SSW
USA 306 2.8 01:32:05 57° S 01:32:41 66° SE 01:36:54 10° ENE
Cosmos 921 Rocket 2.8 01:32:38 55° S 01:33:29 81° ESE 01:37:42 10° NNE
NPP 4.1 01:28:12 10° NNE 01:33:29 55° E 01:35:57 30° SSE
Exosat Rocket 4.4 01:30:27 28° SW 01:33:33 50° WNW 01:38:44 10° NNE
ADEOS II 3.4 01:29:08 10° NNE 01:33:50 32° E 01:36:49 19° SSE
Cosmos 1943 3.4 01:33:25 34° SW 01:35:44 60° WNW 01:41:20 10° NNE
Meteor 2-8 Rocket 4.4 01:29:37 10° N 01:35:47 83° W 01:38:53 32° S
FALCON 9 DEB 4.4 01:32:50 10° NW 01:36:05 41° NNE 01:39:18 10° E
MOZ.5/SAFIR/RUBIN 5/SL-8 3.9 01:38:05 44° SSW 01:39:21 60° W 01:44:05 10° NNW
CZ-2D R/B 2.1 01:35:48 10° NNE 01:41:02 78° ESE 01:43:15 36° S
Cosmos 1603 4.2 01:41:52 29° WSW 01:44:29 50° WNW 01:49:59 10° NNE
Cosmos 2151 3.5 01:44:56 32° SSE 01:46:32 52° E 01:50:38 10° NNE
IDEFIX/ARIANE 42P 4.4 01:44:00 10° NE 01:48:07 23° E 01:52:12 10° SE
Cosmos 1825 3.6 01:47:48 24° W 01:48:13 24° WNW 01:51:21 10° NNW
Cosmos 1076 Rocket 3.4 01:49:45 46° SSW 01:50:57 76° W 01:55:12 10° N
AQUA 4.0 01:48:19 10° NNE 01:53:04 65° ESE 01:55:17 31° S
Cosmos 1437 2.3 01:53:14 10° N 01:55:51 77° NNW 01:55:51 77° NNW
Cosmos 540 Rocket 4.1 01:55:00 28° WSW 01:57:09 43° WNW 02:02:02 10° N
Cosmos 1242 Rocket 2.9 01:56:19 10° NNW 01:59:46 44° W 02:00:05 43° WSW
DELTA 2 R/B (1) 3.6 01:57:41 26° WSW 02:00:45 59° S 02:06:13 10° E
Cosmos 2058 4.2 02:00:33 24° W 02:01:28 26° WNW 02:04:55 10° NNW
X-37B 0.9 02:01:04 21° WNW 02:03:02 67° N 02:06:11 10° E
Cosmos 2221 3.4 02:00:39 10° NNW 02:04:27 31° W 02:05:13 29° WSW
Cosmos 841 Rocket 4.1 02:03:07 27° WSW 02:05:28 43° WNW 02:10:23 10° N
BREEZE-M DEB (TANK) 3.8 02:03:15 10° NW 02:05:29 24° N 02:07:28 10° ENE
IRS-1D 4.2 02:02:54 10° NNE 02:07:52 49° E 02:11:14 19° SSE
NOSS 2-2 (E) 3.6 02:08:02 34° WSW 02:09:09 49° NW 02:12:47 10° NNE
Cosmos 1656 Rocket 4.4 02:04:32 10° NW 02:09:40 36° WSW 02:11:35 28° SW
Cosmos 2292 Rocket 3.4 02:09:52 31° SE 02:10:51 45° E 02:13:42 10° NNE
Cosmos 1553 Rocket 4.4 02:05:05 10° N 02:11:20 62° E 02:17:26 10° SSE
GPS 2-04 Rocket1 3.8 02:15:42 26° SSE 02:15:42 26° SSE 02:18:37 10° ESE
USA 307 3.1 02:14:12 27° WSW 02:16:25 64° NW 02:20:39 10° NE
USA 281 4.2 02:11:12 10° SE 02:17:27 49° ENE 02:23:44 10° NNW
Cosmos 1782 3.8 02:13:58 10° N 02:17:50 44° ENE 02:21:40 10° SSE
Cosmos 2026 Rocket 4.1 02:16:00 25° SSW 02:19:47 67° W 02:26:08 10° N
Cosmos 2369 Rocket 3.6 02:16:01 10° WNW 02:19:52 19° W 02:20:43 18° WSW
NOSS 2-2 (C) 3.6 02:21:26 29° WSW 02:22:50 46° NW 02:26:24 10° NNE
ERBS 3.0 02:24:39 31° S 02:25:32 39° SE 02:28:35 10° ENE
Aureole 3 Rocket 3.9 02:22:20 10° NNW 02:26:11 39° W 02:28:37 24° SW
Cosmos 1633 3.8 02:27:25 24° W 02:28:18 27° WNW 02:31:20 10° NNW
Helios 1B rocket 3.1 02:24:45 10° N 02:28:36 41° WNW 02:30:26 25° WSW
ATLAS 5 CENTAUR R/B 2.1 02:29:34 23° WSW 02:31:44 45° NW 02:35:59 10° NNE
FALCON 9 DEB 4.5 02:29:04 10° NW 02:31:59 37° NNE 02:34:52 10° E
USA 308 3.5 02:29:31 19° WSW 02:32:24 51° NNW 02:36:34 10° NE
SL-19 R/B 4.3 02:28:06 10° N 02:33:18 61° WNW 02:36:50 22° SW
Cosmos 2298 Rocket 4.0 02:29:17 10° NNW 02:34:38 80° WSW 02:39:57 10° SSE
SeaSat 1 3.3 02:32:39 10° NE 02:37:20 42° ESE 02:41:19 14° S
Cosmos 1606 4.3 02:35:49 10° NW 02:38:29 18° W 02:39:10 18° WSW
ADEOS Rocket 3.4 02:32:41 10° S 02:40:01 68° WSW 02:46:42 10° NNW
Meteor 2-21 4.5 02:36:15 16° S 02:41:21 89° E 02:47:34 10° N
FALCON 9 DEB 4.2 02:39:18 10° NW 02:42:17 42° NNE 02:45:14 10° ESE
Cosmos 1933 3.7 02:41:08 10° NNW 02:45:04 46° W 02:47:29 21° SSW
USA 290 4.2 02:44:01 15° W 02:45:19 19° WNW 02:47:42 10° NNW
IRIDIUM 104 4.3 02:40:21 10° N 02:45:33 72° W 02:50:07 14° S
Cosmos 2150 Rocket 4.0 02:40:59 10° NNW 02:46:10 68° WSW 02:51:23 10° S
Cosmos 1833 Rocket 4.3 02:41:40 10° SSE 02:46:22 28° ESE 02:51:04 10° NE
SL-16 R/B 3.4 02:44:57 19° SW 02:48:28 31° W 02:53:55 10° NW
Meteor 1-28 Rocket 3.2 02:45:49 16° S 02:48:45 65° W 02:52:33 10° NNW
DELTA 2 DEB (DPAF) 4.1 02:45:47 13° S 02:49:43 64° WSW 02:54:10 10° NNW
Tianhe-1 3.2 02:49:34 14° SSE 02:50:19 14° SSE 02:52:08 10° ESE
USA 305 4.0 02:46:34 11° W 02:50:20 38° NNW 02:54:20 10° NE
Lacrosse 4 Rocket 2.1 02:50:09 10° NW 02:53:47 32° WSW 02:56:19 16° SSW
Cosmos 1125 Rocket 3.5 02:48:50 10° NNW 02:54:05 71° WSW 02:59:20 10° S
IRIDIUM 114 4.4 02:49:33 10° N 02:54:41 59° W 02:59:14 13° SSW
Cosmos 1151 Rocket 2.9 02:51:15 10° NNW 02:55:31 75° W 02:59:45 10° S
Cosmos 2266 Rocket 4.1 02:49:27 10° S 02:55:33 73° E 03:01:35 10° NNE
Meteor 1-29 4.1 02:55:42 10° N 02:58:42 29° WNW 03:00:31 18° WSW
CZ-4B R/B 4.3 02:55:10 10° NNE 03:00:19 51° E 03:05:20 10° S
CZ-4C R/B 2.4 02:56:32 15° SSW 03:00:25 56° ESE 03:05:57 10° NE
ARIANE 5 R/B 3.1 02:56:33 10° NNE 03:01:27 54° E 03:06:20 10° S
Resurs 1-4 Rocket 3.7 02:57:44 10° NNW 03:01:43 22° WNW 03:05:28 11° WSW
Cosmos 1766 Rocket 3.7 02:59:08 16° SSW 03:02:37 61° W 03:07:04 10° N
Cosmos 1515 Rocket 4.3 02:58:39 10° N 03:03:01 55° E 03:07:22 10° SSE
SL-4 R/B 3.6 03:01:40 10° NW 03:04:58 32° NNE 03:08:06 10° E
Cosmos 1408 Rocket 3.8 03:00:50 10° S 03:05:15 71° E 03:09:43 10° NNE
IKONOS-2 4.5 03:03:05 10° S 03:07:16 64° WSW 03:11:28 10° NNW
Cosmos 2082 Rocket 4.3 03:05:15 10° SSE 03:09:20 21° E 03:13:24 10° NE
COSMOS 2441 4.5 03:04:40 10° NNE 03:09:31 76° ESE 03:14:18 10° S
CENTAUR R/B 4.1 03:02:14 10° NNW 03:10:11 56° NE 03:18:53 10° SE
Cosmos 1862 3.3 03:08:10 10° S 03:12:12 88° E 03:16:17 10° N
FALCON 9 DEB 4.0 03:09:55 10° WNW 03:12:51 27° SW 03:15:46 10° SSE
USA 306 4.4 03:09:06 10° W 03:12:53 30° NNW 03:16:40 10° NE
ADEOS II 3.0 03:08:47 10° N 03:13:29 34° WNW 03:17:45 12° SW
Okean 3 Rocket 4.0 03:09:58 14° SSW 03:13:32 47° WNW 03:17:47 10° N
Lacrosse 5 rocket 2.7 03:10:35 10° NW 03:14:00 39° NE 03:17:30 10° ESE
CZ-2D R/B 4.0 03:17:30 10° NNW 03:20:26 15° WNW 03:23:22 10° W
ASTEX 1 3.6 03:18:37 10° SSW 03:23:26 51° W 03:28:14 10° NNW
Cosmos 1655 Rocket 4.1 03:17:24 10° SSW 03:23:31 61° W 03:29:43 10° N
IDEFIX/ARIANE 42P 3.1 03:22:54 10° N 03:27:54 46° WNW 03:32:51 10° SW
COSMOS 2406 3.6 03:27:01 10° S 03:32:35 63° ESE 03:38:12 10° NNE
PAYLOAD A 4.5 03:32:49 10° NNE 03:37:51 64° ESE 03:43:01 10° S
deb Kosmos-1763 4.1 03:34:42 10° SSW 03:38:11 61° WNW 03:41:42 10° NNE
CZ-2D R/B 3.4 03:35:14 10° NNE 03:39:26 85° WNW 03:43:30 10° SSW
X-37B 1.0 03:36:36 10° W 03:39:37 42° SSW 03:42:38 10° SE
Spot 4 Rocket 4.3 03:34:40 10° NNE 03:39:50 75° ESE 03:44:58 10° S
Cosmos 1812 3.6 03:43:07 10° NNW 03:46:32 32° W 03:49:58 10° SSW
DELTA 2 R/B (1) 3.8 03:41:32 10° W 03:46:53 50° SSW 03:52:15 10° ESE
Cosmos 1656 3.8 03:42:23 10° NNW 03:48:01 62° WSW 03:53:36 10° S
Cosmos 1805 Rocket 4.1 03:44:36 10° S 03:48:54 61° E 03:53:16 10° NNE
Cosmos 2315 Rocket 4.1 03:42:52 10° NNW 03:49:00 65° W 03:55:07 10° S
SL-08 R/B 3.5 03:45:41 10° S 03:50:13 53° W 03:54:52 10° NNW
CZ-2C R/B 3.3 03:46:36 10° NNE 03:50:26 61° E 03:54:10 10° S
